Regional Weather Roundup
Issued by NWS Albany, NY

Home | Current Version | Previous Version | Graphics & Text | Print | Product List | Glossary Off
Versions: 1 2 3 4 5 6 7 8 9 10 11 12 13 14 15 16 17 18 19 20 21 22 23 24 25 26 27 28 29 30 31 32 33 34 35 36 37 38 39 40 41 42 43 44 45 46 47 48 49

000
ASUS41 KALY 291510
RWRALY

NEW YORK STATE HOURLY WEATHER ROUNDUP
NATIONAL WEATHER SERVICE ALBANY NY
1100 AM EDT MON JUN 29 2015

NOTE: "FAIR" INDICATES FEW OR NO CLOUDS BELOW 12,000 FEET WITH NO
SIGNIFICANT WEATHER AND/OR NO OBSTRUCTIONS TO VISIBILITY.

NYZ032-033-038>043-046>054-057>066-NYZ062>081-291600-
EAST


CITY           SKY/WX    TMP DP  RH WIND       PRES   REMARKS
ALBANY         PTSUNNY   70  57  63 W9        29.83F
GLENS FALLS    CLOUDY    66  58  75 S6        29.81S
POUGHKEEPSIE   PTSUNNY   71  57  61 SW8       29.86R
NEWBURGH       PTSUNNY   68  59  73 W12G23    29.89R
MONTGOMERY     CLOUDY    69  58  67 W9        29.88R
WHITE PLAINS   PTSUNNY   68  56  65 W10       29.88R
ISLIP          PTSUNNY   72  56  57 W10       29.86S
NEW YORK CITY  PTSUNNY   71  54  54 W10       29.89R
CENTRAL PARK   CLOUDY    70  55  59 MISG      29.92R
$$

NYZ005>009-017-018-044>046-055-056-291600-
CENTRAL


CITY           SKY/WX    TMP DP  RH WIND       PRES   REMARKS
FULTON         CLOUDY    61  57  87 W8        29.89R
SYRACUSE       DRIZZLE   63  60  90 W9        29.88R
ROME           CLOUDY    62  58  86 NW9       29.88R
ELMIRA         PTSUNNY   64  58  80 NW5       29.91S
BINGHAMTON     CLOUDY    62  57  83 W14       29.91S
MONTICELLO     CLOUDY    63  55  77 NW7       29.92S
$$

NYZ026>034-041>043-291600-
NORTH


CITY           SKY/WX    TMP DP  RH WIND       PRES   REMARKS
WATERTOWN      CLOUDY    62  56  80 W7        29.86R
FORT DRUM      NOT AVBL
MASSENA        PTSUNNY   62  56  80 W5        29.84F
SARANAC LAKE   CLOUDY    57  52  83 CALM      29.83R
PLATTSBURGH    CLOUDY    60  56  86 E3        29.82R
$$

NYZ001>004-010>016-019>021-291600-
WEST


CITY           SKY/WX    TMP DP  RH WIND       PRES   REMARKS
NIAGARA FALLS  PTSUNNY   68  55  63 NW8       29.91S
BUFFALO        MOSUNNY   68  55  63 W9        29.91F
DUNKIRK        MOSUNNY   69  55  60 SW5       29.93S
JAMESTOWN      CLOUDY    63  54  72 SW9       29.97R
WELLSVILLE     MOSUNNY   67  55  65 NW12G17   29.96S
ROCHESTER      CLOUDY    64  57  78 W7        29.91S
PENN YAN       CLOUDY    63  56  78 W6        29.91S
$$

             KEY
       WCI = WIND CHILL INDEX
       VSB = VISIBILITY
       HX  = HEAT INDEX
$$


USA.gov is the U.S. government's official web portal to all federal, state and local government web resources and services.